WMT193 EDJA-LRCL

Flight info

Callsign WMT193
Flight time 1h 30m
Altitude 35000
Route KPT Z999 BEMKI L607 XEBIX N871 BADVI L725 INPUL DCT ABETI DCT IZDUW DCT ATSOS
Aircraft A320/M-SDE3FGHIRWY/LB1

Departure

Time 2026-04-22 15:37
Airport Memmingen Allgau Airport (EDJA)

Arrival

Time 2026-04-22 17:07
Airport Avram Iancu Cluj International Airport (LRCL)
Time Latitude Longitude Altitude Speed Heading
2026-04-22 15:08 47.98751 10.22802 2078 ft 0 kts 52°
2026-04-22 15:34 47.98751 10.22803 2078 ft 0 kts 53°
2026-04-22 15:34 47.98750 10.22816 2078 ft 3 kts 131°
2026-04-22 15:34 47.98723 10.22829 2078 ft 5 kts 163°
2026-04-22 15:34 47.98711 10.22893 2078 ft 7 kts 78°
2026-04-22 15:35 47.98705 10.22964 2077 ft 7 kts 137°
2026-04-22 15:35 47.98663 10.23004 2077 ft 8 kts 149°
2026-04-22 15:35 47.98605 10.23054 2078 ft 9 kts 149°
2026-04-22 15:35 47.98552 10.23094 2078 ft 5 kts 130°
2026-04-22 15:36 47.98556 10.23128 2077 ft 0 kts 56°
2026-04-22 15:36 47.98598 10.23235 2077 ft 40 kts 60°
2026-04-22 15:36 47.98854 10.23884 2072 ft 103 kts 59°
2026-04-22 15:36 47.99321 10.25052 2066 ft 154 kts 58°
2026-04-22 15:37 47.99873 10.26447 2521 ft 160 kts 59°
2026-04-22 15:37 48.00435 10.27843 3226 ft 156 kts 58°
2026-04-22 15:37 48.00998 10.29189 3816 ft 153 kts 57°
2026-04-22 15:37 48.01558 10.30525 4292 ft 155 kts 58°
2026-04-22 15:38 48.02144 10.31887 4789 ft 157 kts 58°
2026-04-22 15:38 48.03352 10.34705 5607 ft 173 kts 59°
2026-04-22 15:38 48.04026 10.36268 5915 ft 188 kts 59°
2026-04-22 15:39 48.04773 10.37991 6185 ft 209 kts 59°
2026-04-22 15:39 48.05602 10.39916 6511 ft 228 kts 58°
2026-04-22 15:39 48.06492 10.42000 6904 ft 246 kts 59°
2026-04-22 15:39 48.07431 10.44214 7450 ft 258 kts 58°
2026-04-22 15:40 48.08388 10.46492 8182 ft 262 kts 58°
2026-04-22 15:40 48.09357 10.48817 8933 ft 265 kts 58°
2026-04-22 15:40 48.10328 10.51170 9651 ft 269 kts 59°
2026-04-22 15:40 48.11069 10.53691 10320 ft 273 kts 78°
2026-04-22 15:41 48.11237 10.56322 10875 ft 280 kts 86°
2026-04-22 15:41 48.11256 10.59181 11399 ft 288 kts 88°
2026-04-22 15:41 48.11237 10.62047 12007 ft 291 kts 88°
2026-04-22 15:41 48.11179 10.65000 12622 ft 295 kts 94°
2026-04-22 15:42 48.10617 10.67930 13216 ft 302 kts 110°
2026-04-22 15:42 48.09762 10.70651 13821 ft 306 kts 114°
2026-04-22 15:42 48.08781 10.73543 14420 ft 310 kts 114°
2026-04-22 15:42 48.07795 10.76390 14990 ft 313 kts 114°
2026-04-22 15:43 48.06784 10.79293 15563 ft 317 kts 114°
2026-04-22 15:43 48.05770 10.82198 16117 ft 320 kts 114°
2026-04-22 15:43 48.04730 10.85172 16664 ft 323 kts 114°
2026-04-22 15:43 48.03679 10.88175 17196 ft 327 kts 114°
2026-04-22 15:44 48.02614 10.91208 17709 ft 331 kts 115°
2026-04-22 15:44 48.01504 10.94251 18213 ft 335 kts 115°
2026-04-22 15:44 48.00377 10.97316 18717 ft 338 kts 115°
2026-04-22 15:44 47.99231 11.00437 19220 ft 342 kts 115°
2026-04-22 15:45 47.98095 11.03533 19720 ft 345 kts 115°
2026-04-22 15:45 47.96929 11.06713 20216 ft 348 kts 115°
2026-04-22 15:45 47.95766 11.09886 20697 ft 351 kts 115°
2026-04-22 15:45 47.94587 11.13101 21179 ft 354 kts 115°
2026-04-22 15:46 47.93387 11.16368 21656 ft 356 kts 115°
2026-04-22 15:46 47.92204 11.19584 22126 ft 359 kts 115°
2026-04-22 15:46 47.90988 11.22888 22562 ft 362 kts 114°
2026-04-22 15:46 47.89928 11.25762 22950 ft 365 kts 114°
2026-04-22 15:47 47.88777 11.28882 23343 ft 367 kts 114°
2026-04-22 15:47 47.87508 11.32318 23759 ft 370 kts 114°
2026-04-22 15:47 47.86255 11.35708 24173 ft 373 kts 114°
2026-04-22 15:47 47.84991 11.39123 24561 ft 375 kts 114°
2026-04-22 15:48 47.83725 11.42538 24939 ft 378 kts 114°
2026-04-22 15:48 47.82444 11.45986 25300 ft 381 kts 114°
2026-04-22 15:48 47.81158 11.49443 25657 ft 384 kts 114°
2026-04-22 15:48 47.79861 11.52926 26002 ft 386 kts 114°
2026-04-22 15:49 47.78555 11.56429 26334 ft 389 kts 114°
2026-04-22 15:49 47.77238 11.59958 26660 ft 391 kts 114°
2026-04-22 15:49 47.75914 11.63503 26975 ft 394 kts 114°
2026-04-22 15:49 47.74582 11.67065 27287 ft 396 kts 115°
2026-04-22 15:50 47.73234 11.70661 27581 ft 399 kts 115°
2026-04-22 15:50 47.71875 11.74302 27873 ft 402 kts 113°
2026-04-22 15:50 47.70923 11.78118 28120 ft 396 kts 96°
2026-04-22 15:50 47.70806 11.82129 28420 ft 387 kts 78°
2026-04-22 15:51 47.71401 11.86022 28743 ft 383 kts 69°
2026-04-22 15:51 47.72150 11.89799 29021 ft 385 kts 69°
2026-04-22 15:51 47.72905 11.93664 29292 ft 388 kts 70°
2026-04-22 15:51 47.73520 11.97532 29563 ft 392 kts 73°
2026-04-22 15:52 47.74093 12.01523 29842 ft 394 kts 73°
2026-04-22 15:52 47.74652 12.05500 30120 ft 396 kts 73°
2026-04-22 15:52 47.75218 12.09541 30391 ft 398 kts 73°
2026-04-22 15:52 47.75779 12.13565 30652 ft 399 kts 73°
2026-04-22 15:53 47.76341 12.17602 30900 ft 401 kts 73°
2026-04-22 15:53 47.76908 12.21688 31127 ft 403 kts 73°
2026-04-22 15:53 47.77481 12.25821 31364 ft 404 kts 73°
2026-04-22 15:53 47.78047 12.29921 31592 ft 406 kts 73°
2026-04-22 15:54 47.78608 12.34003 31813 ft 407 kts 73°
2026-04-22 15:54 47.79181 12.38186 32038 ft 408 kts 73°
2026-04-22 15:54 47.79749 12.42344 32254 ft 409 kts 73°
2026-04-22 15:54 47.80314 12.46489 32466 ft 411 kts 73°
2026-04-22 15:55 47.80879 12.50646 32672 ft 412 kts 73°
2026-04-22 15:55 47.81443 12.54821 32873 ft 413 kts 73°
2026-04-22 15:55 47.82017 12.59070 33073 ft 414 kts 73°
2026-04-22 15:55 47.82579 12.63271 33252 ft 416 kts 73°
2026-04-22 15:56 47.83116 12.67409 33413 ft 417 kts 76°
2026-04-22 15:56 47.83530 12.71737 33572 ft 421 kts 81°
2026-04-22 15:56 47.83616 12.76198 33713 ft 426 kts 86°
2026-04-22 15:56 47.83559 12.80586 33853 ft 427 kts 87°
2026-04-22 15:57 47.83481 12.84984 33976 ft 429 kts 87°
2026-04-22 15:57 47.83401 12.89457 34099 ft 431 kts 87°
2026-04-22 15:57 47.83324 12.93900 34239 ft 432 kts 87°
2026-04-22 15:57 47.83248 12.98379 34403 ft 433 kts 87°
2026-04-22 15:58 47.83173 13.02883 34560 ft 434 kts 86°
2026-04-22 15:58 47.83099 13.07383 34716 ft 435 kts 86°
2026-04-22 15:58 47.83024 13.11891 34887 ft 435 kts 87°
2026-04-22 15:58 47.82947 13.16387 35061 ft 435 kts 87°
2026-04-22 15:59 47.82870 13.20836 35190 ft 436 kts 87°
2026-04-22 15:59 47.82790 13.25347 35204 ft 436 kts 87°
2026-04-22 15:59 47.82625 13.34381 35194 ft 436 kts 87°
2026-04-22 16:00 47.82453 13.43369 35195 ft 435 kts 87°
2026-04-22 16:00 47.82275 13.52385 35199 ft 435 kts 87°
2026-04-22 16:01 47.82091 13.61363 35196 ft 435 kts 87°
2026-04-22 16:01 47.81900 13.70375 35193 ft 435 kts 88°
2026-04-22 16:02 47.81700 13.79389 35192 ft 435 kts 88°
2026-04-22 16:02 47.81495 13.88359 35189 ft 434 kts 88°
2026-04-22 16:03 47.81282 13.97299 35186 ft 434 kts 88°
2026-04-22 16:03 47.81063 14.06275 35192 ft 433 kts 88°
2026-04-22 16:04 47.80839 14.15171 35191 ft 432 kts 88°
2026-04-22 16:04 47.80608 14.24063 35198 ft 432 kts 88°
2026-04-22 16:05 47.80368 14.33051 35198 ft 432 kts 88°
2026-04-22 16:05 47.80121 14.41999 35190 ft 432 kts 88°
2026-04-22 16:06 47.79869 14.50919 35190 ft 432 kts 88°
2026-04-22 16:06 47.79609 14.59865 35181 ft 432 kts 88°
2026-04-22 16:07 47.79342 14.68766 35174 ft 431 kts 88°
2026-04-22 16:07 47.79068 14.77689 35157 ft 432 kts 89°
2026-04-22 16:08 47.78786 14.86671 35153 ft 431 kts 89°
2026-04-22 16:08 47.78500 14.95573 35168 ft 431 kts 89°
2026-04-22 16:09 47.78204 15.04539 35177 ft 431 kts 89°
2026-04-22 16:09 47.77903 15.13454 35178 ft 431 kts 89°
2026-04-22 16:10 47.77593 15.22414 35162 ft 431 kts 89°
2026-04-22 16:10 47.77278 15.31325 35151 ft 431 kts 89°
2026-04-22 16:11 47.76957 15.40198 35165 ft 430 kts 89°
2026-04-22 16:11 47.76629 15.49081 35160 ft 430 kts 89°
2026-04-22 16:12 47.76294 15.57975 35165 ft 430 kts 89°
2026-04-22 16:12 47.75955 15.66823 35161 ft 431 kts 90°
2026-04-22 16:13 47.75605 15.75759 35165 ft 431 kts 90°
2026-04-22 16:13 47.75250 15.84636 35167 ft 431 kts 90°
2026-04-22 16:14 47.74886 15.93533 35164 ft 431 kts 90°
2026-04-22 16:14 47.74513 16.02490 35164 ft 430 kts 90°
2026-04-22 16:15 47.74136 16.11383 35176 ft 430 kts 90°
2026-04-22 16:15 47.73755 16.20256 35182 ft 430 kts 90°
2026-04-22 16:16 47.73365 16.29132 35194 ft 430 kts 90°
2026-04-22 16:16 47.72970 16.37969 35188 ft 430 kts 90°
2026-04-22 16:17 47.72565 16.46866 35196 ft 430 kts 90°
2026-04-22 16:17 47.72158 16.55675 35190 ft 429 kts 90°
2026-04-22 16:18 47.71741 16.64540 35183 ft 429 kts 90°
2026-04-22 16:18 47.71340 16.72954 35189 ft 429 kts 91°
2026-04-22 16:19 47.70910 16.81814 35193 ft 429 kts 91°
2026-04-22 16:19 47.70478 16.90581 35191 ft 429 kts 91°
2026-04-22 16:20 47.70034 16.99430 35186 ft 429 kts 91°
2026-04-22 16:20 47.69583 17.08294 35171 ft 429 kts 91°
2026-04-22 16:21 47.69129 17.17083 35168 ft 429 kts 91°
2026-04-22 16:21 47.68668 17.25901 35164 ft 428 kts 91°
2026-04-22 16:22 47.67963 17.39105 35155 ft 428 kts 91°
2026-04-22 16:23 47.67245 17.52256 35154 ft 427 kts 91°
2026-04-22 16:23 47.66759 17.61049 35151 ft 427 kts 91°
2026-04-22 16:24 47.66067 17.73307 35152 ft 428 kts 91°
2026-04-22 16:25 47.65562 17.82104 35154 ft 427 kts 91°
2026-04-22 16:25 47.64798 17.95210 35143 ft 427 kts 91°
2026-04-22 16:26 47.64278 18.03969 35139 ft 427 kts 91°
2026-04-22 16:26 47.63750 18.12780 35132 ft 427 kts 91°
2026-04-22 16:27 47.63217 18.21542 35130 ft 427 kts 92°
2026-04-22 16:27 47.62677 18.30300 35128 ft 427 kts 91°
2026-04-22 16:28 47.62130 18.39049 35123 ft 427 kts 91°
2026-04-22 16:28 47.61573 18.47878 35125 ft 427 kts 91°
2026-04-22 16:29 47.61015 18.56621 35123 ft 427 kts 91°
2026-04-22 16:29 47.60460 18.65206 35119 ft 427 kts 92°
2026-04-22 16:30 47.59873 18.74175 35116 ft 427 kts 92°
2026-04-22 16:30 47.59293 18.82925 35107 ft 427 kts 92°
2026-04-22 16:31 47.58704 18.91709 35106 ft 427 kts 92°
2026-04-22 16:31 47.58113 19.00415 35101 ft 427 kts 92°
2026-04-22 16:32 47.57510 19.09199 35112 ft 427 kts 92°
2026-04-22 16:32 47.56905 19.17937 35099 ft 426 kts 92°
2026-04-22 16:33 47.56295 19.26642 35111 ft 427 kts 92°
2026-04-22 16:33 47.55674 19.35389 35107 ft 427 kts 92°
2026-04-22 16:34 47.55052 19.44062 35100 ft 426 kts 92°
2026-04-22 16:34 47.54414 19.52863 35105 ft 426 kts 92°
2026-04-22 16:35 47.53776 19.61582 35104 ft 427 kts 92°
2026-04-22 16:35 47.53133 19.70271 35101 ft 427 kts 93°
2026-04-22 16:36 47.52477 19.79056 35102 ft 428 kts 93°
2026-04-22 16:36 47.51817 19.87780 35103 ft 427 kts 93°
2026-04-22 16:37 47.51151 19.96509 35103 ft 427 kts 93°
2026-04-22 16:37 47.50475 20.05248 35107 ft 427 kts 93°
2026-04-22 16:38 47.49800 20.13932 35102 ft 427 kts 93°
2026-04-22 16:38 47.49115 20.22655 35094 ft 427 kts 93°
2026-04-22 16:39 47.48425 20.31335 35101 ft 428 kts 93°
2026-04-22 16:39 47.47723 20.40061 35098 ft 427 kts 93°
2026-04-22 16:40 47.47015 20.48800 35099 ft 427 kts 93°
2026-04-22 16:41 47.45950 20.61819 35097 ft 428 kts 93°
2026-04-22 16:41 47.45225 20.70547 35097 ft 428 kts 94°
2026-04-22 16:42 47.44496 20.79247 35093 ft 428 kts 94°
2026-04-22 16:42 47.43761 20.87944 35086 ft 428 kts 94°
2026-04-22 16:43 47.43020 20.96649 35088 ft 428 kts 94°
2026-04-22 16:43 47.42272 21.05332 35086 ft 429 kts 94°
2026-04-22 16:44 47.41517 21.14034 35083 ft 428 kts 94°
2026-04-22 16:44 47.40752 21.22744 35085 ft 428 kts 94°
2026-04-22 16:45 47.39983 21.31455 35082 ft 428 kts 94°
2026-04-22 16:45 47.39210 21.40122 35075 ft 428 kts 94°
2026-04-22 16:45 47.38814 21.44544 34621 ft 431 kts 94°
2026-04-22 16:46 47.38423 21.48872 34070 ft 432 kts 94°
2026-04-22 16:46 47.38026 21.53263 33515 ft 434 kts 94°
2026-04-22 16:46 47.37617 21.57671 32933 ft 437 kts 96°
2026-04-22 16:46 47.36937 21.62034 32670 ft 431 kts 101°
2026-04-22 16:47 47.36165 21.66276 32475 ft 431 kts 102°
2026-04-22 16:47 47.35409 21.70357 32287 ft 431 kts 102°
2026-04-22 16:47 47.34612 21.74667 32088 ft 431 kts 102°
2026-04-22 16:47 47.33833 21.78904 31894 ft 431 kts 102°
2026-04-22 16:48 47.33052 21.83170 31689 ft 431 kts 102°
2026-04-22 16:48 47.32271 21.87442 31490 ft 432 kts 102°
2026-04-22 16:48 47.31491 21.91701 31293 ft 432 kts 102°
2026-04-22 16:48 47.30706 21.95987 31038 ft 432 kts 102°
2026-04-22 16:49 47.29927 22.00244 30579 ft 433 kts 102°
2026-04-22 16:49 47.29144 22.04502 29961 ft 434 kts 102°
2026-04-22 16:49 47.28353 22.08800 29244 ft 435 kts 102°
2026-04-22 16:49 47.27569 22.13058 28451 ft 438 kts 102°
2026-04-22 16:50 47.26770 22.17383 27640 ft 440 kts 102°
2026-04-22 16:50 47.25964 22.21736 26764 ft 444 kts 102°
2026-04-22 16:50 47.25155 22.26094 25888 ft 446 kts 102°
2026-04-22 16:50 47.24329 22.30529 24965 ft 448 kts 102°
2026-04-22 16:51 47.23515 22.34889 24017 ft 450 kts 102°
2026-04-22 16:51 47.22690 22.39302 23185 ft 448 kts 102°
2026-04-22 16:51 47.21861 22.43714 22578 ft 442 kts 103°
2026-04-22 16:51 47.21046 22.48040 21966 ft 436 kts 102°
2026-04-22 16:52 47.20244 22.52297 21351 ft 432 kts 103°
2026-04-22 16:52 47.19445 22.56523 20736 ft 427 kts 103°
2026-04-22 16:52 47.18660 22.60674 20136 ft 423 kts 103°
2026-04-22 16:52 47.17878 22.64801 19545 ft 419 kts 103°
2026-04-22 16:53 47.17090 22.68944 18950 ft 416 kts 103°
2026-04-22 16:53 47.16312 22.73029 18358 ft 412 kts 103°
2026-04-22 16:53 47.15541 22.77071 17747 ft 410 kts 103°
2026-04-22 16:53 47.14784 22.81037 17140 ft 407 kts 103°
2026-04-22 16:54 47.14019 22.85029 16540 ft 404 kts 104°
2026-04-22 16:54 47.13257 22.88997 15945 ft 401 kts 104°
2026-04-22 16:54 47.12501 22.92925 15357 ft 398 kts 104°
2026-04-22 16:54 47.11755 22.96798 14773 ft 396 kts 104°
2026-04-22 16:55 47.11005 23.00680 14188 ft 393 kts 104°
2026-04-22 16:55 47.10271 23.04473 13618 ft 390 kts 104°
2026-04-22 16:55 47.09526 23.08311 13040 ft 387 kts 104°
2026-04-22 16:55 47.08798 23.12055 12477 ft 384 kts 104°
2026-04-22 16:56 47.08066 23.15813 11904 ft 381 kts 104°
2026-04-22 16:56 47.07343 23.19523 11440 ft 375 kts 104°
2026-04-22 16:56 47.06634 23.23145 11140 ft 365 kts 104°
2026-04-22 16:56 47.05940 23.26680 10949 ft 352 kts 104°
2026-04-22 16:57 47.05277 23.30057 10760 ft 341 kts 104°
2026-04-22 16:57 47.04633 23.33329 10574 ft 330 kts 104°
2026-04-22 16:57 47.04010 23.36496 10404 ft 319 kts 104°
2026-04-22 16:57 47.03405 23.39565 10247 ft 309 kts 104°
2026-04-22 16:58 47.02816 23.42544 10114 ft 299 kts 104°
2026-04-22 16:58 47.02240 23.45457 9852 ft 294 kts 103°
2026-04-22 16:58 47.01674 23.48321 9530 ft 289 kts 103°
2026-04-22 16:58 47.01118 23.51131 9097 ft 288 kts 103°
2026-04-22 16:59 47.00562 23.53931 8722 ft 286 kts 103°
2026-04-22 16:59 47.00010 23.56711 8352 ft 285 kts 103°
2026-04-22 16:59 46.99456 23.59493 8001 ft 284 kts 103°
2026-04-22 16:59 46.98906 23.62251 7659 ft 284 kts 103°
2026-04-22 17:00 46.98356 23.65005 7321 ft 283 kts 104°
2026-04-22 17:00 46.97244 23.70566 6641 ft 283 kts 104°
2026-04-22 17:00 46.96689 23.73339 6296 ft 283 kts 104°
2026-04-22 17:01 46.96136 23.76094 5952 ft 282 kts 104°
2026-04-22 17:01 46.95586 23.78821 5627 ft 282 kts 104°
2026-04-22 17:01 46.95031 23.81570 5296 ft 280 kts 104°
2026-04-22 17:01 46.94483 23.84283 4963 ft 276 kts 104°
2026-04-22 17:02 46.93881 23.86946 4620 ft 275 kts 114°
2026-04-22 17:02 46.92622 23.88999 4333 ft 273 kts 150°
2026-04-22 17:02 46.90887 23.89960 4211 ft 262 kts 164°
2026-04-22 17:02 46.89151 23.90622 4056 ft 251 kts 165°
2026-04-22 17:03 46.87539 23.91250 3907 ft 244 kts 164°
2026-04-22 17:03 46.85987 23.91813 3787 ft 233 kts 178°
2026-04-22 17:03 46.84463 23.91382 3682 ft 220 kts 213°
2026-04-22 17:03 46.83439 23.89905 3598 ft 201 kts 248°
2026-04-22 17:04 46.82996 23.88039 3638 ft 190 kts 261°
2026-04-22 17:04 46.82695 23.86178 3379 ft 190 kts 261°
2026-04-22 17:04 46.82336 23.84315 3108 ft 187 kts 258°
2026-04-22 17:04 46.81947 23.82573 2869 ft 176 kts 256°
2026-04-22 17:05 46.81564 23.80919 2626 ft 162 kts 256°
2026-04-22 17:05 46.81220 23.79420 2394 ft 149 kts 256°
2026-04-22 17:05 46.80905 23.78023 2198 ft 141 kts 256°
2026-04-22 17:05 46.80600 23.76664 2023 ft 142 kts 256°
2026-04-22 17:06 46.80299 23.75310 1858 ft 140 kts 256°
2026-04-22 17:06 46.79997 23.73970 1675 ft 139 kts 255°
2026-04-22 17:06 46.79684 23.72607 1495 ft 141 kts 255°
2026-04-22 17:06 46.79383 23.71269 1303 ft 140 kts 255°
2026-04-22 17:07 46.79080 23.69922 1101 ft 139 kts 256°
2026-04-22 17:07 46.78799 23.68665 1033 ft 102 kts 252°
2026-04-22 17:07 46.78638 23.67953 1038 ft 60 kts 252°
2026-04-22 17:07 46.78527 23.67462 1041 ft 39 kts 252°
2026-04-22 17:08 46.78469 23.67217 1042 ft 11 kts 238°
2026-04-22 17:08 46.78398 23.67196 1043 ft 11 kts 146°
2026-04-22 17:08 46.78344 23.67282 1042 ft 12 kts 117°
2026-04-22 17:08 46.78343 23.67389 1042 ft 12 kts 80°
2026-04-22 17:09 46.78362 23.67523 1041 ft 13 kts 75°
2026-04-22 17:09 46.78393 23.67665 1040 ft 17 kts 72°
2026-04-22 17:09 46.78440 23.67869 1039 ft 25 kts 72°
2026-04-22 17:09 46.78500 23.68138 1037 ft 28 kts 72°
2026-04-22 17:10 46.78560 23.68404 1035 ft 27 kts 71°
2026-04-22 17:10 46.78618 23.68664 1034 ft 26 kts 72°
2026-04-22 17:10 46.78673 23.68911 1033 ft 25 kts 72°
2026-04-22 17:10 46.78712 23.69083 1032 ft 7 kts 72°
2026-04-22 17:11 46.78724 23.69138 1032 ft 5 kts 71°
2026-04-22 17:11 46.78738 23.69196 1032 ft 5 kts 73°
2026-04-22 17:11 46.78721 23.69249 1032 ft 8 kts 153°
2026-04-22 17:11 46.78650 23.69285 1032 ft 12 kts 162°
2026-04-22 17:12 46.78576 23.69320 1032 ft 8 kts 162°
2026-04-22 17:12 46.78560 23.69365 1032 ft 5 kts 74°
2026-04-22 17:12 46.78569 23.69406 1032 ft 2 kts 72°
2026-04-22 17:12 46.78570 23.69410 1032 ft 0 kts 71°